Location: Dampvalley
(47.9094°N, 6.1967°E)
Time: 13:26:15
(UTC+00:00)

CZ-2C R/B - Pass Details

Date: 05 March 2021
Orbit: 667 x 785 km, 98.2° (Epoch: 14 April)

Event Time Altitude Azimuth Distance (km) Brightness Sun altitude
Rises 04:29:02 0° 6° (N) 3,153 5.9 -17.4°
Reaches altitude 10° 04:31:33 10° 356° (N) 2,207 5.0 -17.0°
Maximum altitude 04:35:45 31° 295° (WNW) 1,221 3.1 -16.3°
Enters shadow 04:36:56 27° 268° (W) 1,317 3.1 -16.1°
